Location: Newark
(35.8833°N, 14.5000°E)
Time: 00:28:15
(UTC+00:00)

Transit 2A - All Passes

Search period start: 15 November 2019 00:00
Search period end: 25 November 2019 00:00
Orbit: 601 x 957 km, 66.7° (Epoch: 14 November)

Date Brightness Start Highest point End Pass type
(mag) Time Alt. Az. Time Alt. Az. Time Alt. Az.
15 Nov - 10:43:37 10° SSE 10:47:51 24° ESE 10:51:48 10° NE daylight
15 Nov - 12:26:07 10° WSW 12:30:50 35° WNW 12:35:12 10° N daylight
15 Nov - 21:14:40 10° NNW 21:19:02 85° WSW 21:23:37 10° SSE night (unlit)
16 Nov - 10:10:47 10° SE 10:13:52 16° ESE 10:16:48 10° ENE daylight
16 Nov - 11:51:34 10° SW 11:56:41 53° WNW 12:01:20 10° NNE daylight
16 Nov - 20:40:37 10° NNW 20:44:55 59° ENE 20:49:26 10° SE night (unlit)
16 Nov - 22:26:40 10° W 22:27:33 11° WSW 22:28:27 10° WSW night (unlit)
17 Nov - 11:17:16 10° SSW 11:22:33 82° WNW 11:27:21 10° NNE daylight
17 Nov - 20:06:43 10° N 20:10:46 36° ENE 20:14:58 10° SE night (unlit)
17 Nov - 21:50:39 10° WNW 21:53:36 18° WSW 21:56:39 10° SSW night (unlit)
18 Nov - 10:43:14 10° SSW 10:48:28 65° ESE 10:53:12 10° NNE daylight
18 Nov - 12:29:09 10° W 12:31:54 15° NW 12:34:34 10° NNW daylight
18 Nov - 19:33:01 10° N 19:36:33 24° NE 19:40:12 10° ESE night (unlit)
18 Nov - 21:15:51 10° NW 21:19:37 28° WSW 21:23:33 10° S night (unlit)
19 Nov - 10:09:28 10° S 10:14:24 41° ESE 10:18:54 10° NE daylight
19 Nov - 11:53:46 10° WSW 11:57:37 21° NW 12:01:14 10° N daylight
19 Nov - 18:59:34 10° NNE 19:02:16 16° NE 19:05:02 10° E night (unlit)
19 Nov - 20:41:24 10° NW 20:45:34 46° WSW 20:50:00 10° S night (unlit)
20 Nov - 09:36:02 10° SSE 09:40:21 26° ESE 09:44:23 10° NE daylight
20 Nov - 11:18:50 10° WSW 11:23:22 31° WNW 11:27:36 10° N daylight
20 Nov - 18:27:05 10° NE 18:27:55 10° NE 18:28:46 10° ENE night (unlit)
20 Nov - 20:07:09 10° NNW 20:11:31 77° WSW 20:16:08 10° SSE night (unlit)
21 Nov - 09:03:04 10° SSE 09:06:21 17° ESE 09:09:29 10° ENE daylight
21 Nov - 10:44:14 10° SW 10:49:12 48° WNW 10:53:46 10° NNE daylight
21 Nov - 19:33:04 10° NNW 19:37:25 66° ENE 19:42:00 10° SE night (unlit)
22 Nov - 08:31:34 10° ESE 08:32:24 10° ESE 08:33:13 10° E daylight
22 Nov - 10:09:53 10° SSW 10:15:04 75° WNW 10:19:47 10° NNE daylight
22 Nov - 18:59:08 10° NNW 19:03:16 40° ENE 19:07:36 10° SE night (unlit)
22 Nov - 20:43:19 10° WNW 20:46:04 16° WSW 20:48:54 10° SW night (unlit)
23 Nov - 09:35:47 10° SSW 09:40:58 71° ESE 09:45:40 10° NNE daylight
23 Nov - 11:22:08 10° W 11:24:28 13° NW 11:26:44 10° NNW daylight
23 Nov - 18:25:22 10° N 18:29:04 26° NE 18:32:54 10° ESE visible
23 Nov - 20:08:25 10° NW 20:12:05 26° WSW 20:15:55 10° SSW night (unlit)
24 Nov - 09:01:57 10° S 09:06:54 45° ESE 09:11:25 10° NE daylight
24 Nov - 10:46:34 10° W 10:50:09 19° NW 10:53:33 10° N daylight
24 Nov - 17:51:51 10° N 17:54:48 17° NE 17:57:50 10° E visible
24 Nov - 19:33:54 10° NW 19:38:04 41° WSW 19:42:27 10° S night (unlit)
